Date,TemperatureHighF,TemperatureAvgF,TemperatureLowF,DewpointHighF,DewpointAvgF,DewpointLowF,HumidityHigh,HumidityAvg,HumidityLow,PressureMaxIn,PressureMinIn,WindSpeedMaxMPH,WindSpeedAvgMPH,GustSpeedMaxMPH,PrecipitationSumIn
2013-1-1,14,7,-3,8,1,-7,82,78,67,30.23,30.08,0,0,0,0.00
2013-1-2,27,14,4,13,4,-36,81,70,5,30.09,29.96,0,0,0,0.00
2013-1-3,27,14,7,15,6,-24,79,74,11,30.26,30.05,0,0,0,0.00
2013-1-4,30,19,9,23,11,1,75,69,51,30.18,30.09,0,0,0,0.00
2013-1-5,34,23,14,20,7,-26,71,51,9,30.14,29.87,0,0,0,0.00
2013-1-6,22,16,10,16,8,-3,78,70,49,30.22,29.96,0,0,0,0.00
2013-1-7,38,28,16,29,19,3,74,68,37,30.16,29.96,0,0,0,0.00
2013-1-8,37,30,21,25,9,-17,63,42,16,30.00,29.85,0,0,0,0.00
2013-1-9,39,32,27,30,16,-8,70,53,19,30.39,29.97,0,0,0,0.00
2013-1-10,38,33,28,28,-2,-57,71,42,1,30.37,29.74,0,0,0,0.00
2013-1-11,44,39,34,-51,-54,-57,1,1,1,29.75,29.48,0,0,0,0.00
2013-1-12,45,24,14,10,-10,-62,62,40,1,30.03,29.49,0,0,0,0.00
2013-1-13,14,10,6,4,0,-4,68,63,55,30.23,29.97,0,0,0,0.00
2013-1-14,26,15,5,16,5,-6,69,65,54,30.38,30.23,0,0,0,0.00
2013-1-15,31,18,13,20,8,-2,68,63,52,30.33,29.98,0,0,0,0.00
2013-1-16,42,29,17,28,1,-58,67,45,1,30.13,29.78,0,0,0,0.00
2013-1-17,28,20,11,18,10,2,72,66,47,30.37,30.13,0,0,0,0.00
2013-1-18,48,36,24,35,19,-3,64,51,29,30.30,29.80,0,0,0,0.00
2013-1-19,48,33,9,35,-6,-58,72,39,1,30.13,29.74,0,0,0,0.00
2013-1-20,14,9,4,4,1,-2,75,71,61,30.32,30.12,0,0,0,0.00
2013-1-21,7,1,-6,0,-7,-13,75,69,60,30.28,30.19,0,0,0,0.00
2013-1-22,10,3,-6,2,-5,-11,77,69,56,30.34,30.23,0,0,0,0.00
2013-1-23,23,14,2,14,5,-7,72,68,61,30.45,30.09,0,0,0,0.00
2013-1-24,17,8,-1,7,-3,-10,71,61,47,30.58,30.16,0,0,0,0.00
2013-1-25,29,18,7,18,9,0,74,67,49,30.22,29.97,0,0,0,0.00
2013-1-26,28,17,3,15,7,-4,75,65,50,30.32,30.18,0,0,0,0.00
2013-1-27,33,30,26,19,-25,-59,67,28,1,30.18,29.75,0,0,0,0.00
2013-1-28,43,33,31,-52,-58,-59,1,1,1,29.91,29.61,0,0,0,0.00
2013-1-29,48,38,32,-49,-55,-58,1,1,1,29.62,29.50,0,0,0,0.00
2013-1-30,33,22,12,2,-40,-66,60,16,1,29.72,29.43,0,0,0,0.00
2013-1-31,12,2,-5,1,-4,-10,77,72,56,30.22,29.72,0,0,0,0.00
2013-2-1,12,0,-10,-1,-7,-15,78,71,49,30.28,29.99,0,0,0,0.00
2013-2-2,15,13,10,8,3,-4,76,66,44,30.09,29.92,0,0,0,0.00
2013-2-3,21,17,10,13,7,-17,77,67,20,30.05,29.83,0,0,0,0.00
2013-2-4,21,16,9,13,8,1,79,68,44,29.97,29.80,0,0,0,0.00
2013-2-5,35,25,14,26,8,-16,72,51,17,30.07,29.73,0,0,0,0.00
2013-2-6,37,26,12,21,0,-55,65,39,2,30.11,29.92,0,0,0,0.00
2013-2-7,36,32,27,-2,-51,-62,20,3,1,30.13,29.90,0,0,0,0.00
2013-2-8,29,27,26,14,-14,-62,55,23,1,30.32,30.13,0,0,0,0.00
2013-2-9,31,28,26,-6,-20,-60,22,13,1,30.25,29.91,0,0,0,0.00
2013-2-10,35,34,30,-56,-58,-60,1,1,1,29.93,29.28,0,0,0,0.02
2013-2-11,35,26,22,8,-34,-63,52,17,1,30.03,29.36,0,0,0,0.01
2013-2-12,37,28,21,22,3,-61,60,39,1,30.06,29.81,0,0,0,0.00
2013-2-13,38,32,23,20,-19,-64,51,19,1,29.82,29.59,0,0,0,0.00
2013-2-14,37,33,22,27,8,-58,72,47,1,30.08,29.58,0,0,0,0.00
2013-2-15,23,18,13,15,11,6,75,72,64,30.22,30.08,0,0,0,0.00
2013-2-16,23,16,11,15,9,3,75,72,68,30.22,30.08,0,0,0,0.00
2013-2-17,32,24,14,24,16,6,73,70,64,30.09,29.70,0,0,0,0.00
2013-2-18,39,29,11,27,12,-58,76,54,1,29.73,29.54,0,0,0,0.00
2013-2-19,10,3,0,3,-3,-5,78,77,74,30.26,29.76,0,0,0,0.00
2013-2-20,21,10,0,14,4,-5,78,75,70,30.37,30.25,0,0,0,0.00
2013-2-21,23,18,12,16,2,-65,75,61,1,30.32,29.89,0,0,0,0.00
2013-2-22,30,25,21,15,-29,-64,60,21,1,29.89,29.77,0,0,0,0.00
2013-2-23,27,20,12,19,7,-4,75,59,37,29.94,29.85,0,0,0,0.00
2013-2-24,31,22,8,23,10,-6,72,61,32,30.06,29.93,0,0,0,0.00
2013-2-25,37,30,24,28,14,2,70,52,32,30.08,29.93,0,0,0,0.00
2013-2-26,34,31,28,24,10,-60,66,52,1,29.93,29.68,0,0,0,0.00
2013-2-27,34,30,28,12,-34,-61,40,11,1,29.88,29.71,0,0,0,0.00
2013-2-28,32,29,27,23,11,-60,69,49,1,30.10,29.88,0,0,0,0.00
2013-3-1,27,23,13,19,15,6,76,70,51,30.25,30.09,0,0,0,0.00
2013-3-2,27,17,8,18,10,0,76,73,68,30.25,30.13,0,0,0,0.00
2013-3-3,28,21,10,18,13,4,77,72,62,30.14,29.96,0,0,0,0.00
2013-3-4,31,26,23,22,13,1,74,57,36,29.99,29.85,0,0,0,0.00
2013-3-5,31,27,20,17,-7,-63,67,33,1,30.17,29.89,0,0,0,0.00
2013-3-6,27,21,11,19,10,-4,75,62,35,30.32,30.17,0,0,0,0.00
2013-3-7,29,18,6,21,6,-5,73,59,39,30.34,30.28,0,0,0,0.00
2013-3-8,35,28,19,22,7,-14,58,42,14,30.31,30.10,0,0,0,0.00
2013-3-9,36,35,33,-14,-54,-58,12,2,1,30.10,29.70,0,0,0,0.00
2013-3-10,60,37,36,-41,-56,-56,1,1,1,29.76,29.60,0,0,0,0.00
2013-3-11,37,30,23,-8,-59,-64,24,1,1,29.84,29.63,0,0,0,0.00
2013-3-12,30,24,20,19,-6,-65,71,39,1,30.10,29.83,0,0,0,0.00
2013-3-13,28,21,15,20,12,5,73,67,55,30.33,30.10,0,0,0,0.00
2013-3-14,37,30,21,24,2,-63,71,40,1,30.27,30.00,0,0,0,0.00
2013-3-15,38,33,28,11,-46,-61,32,5,1,30.00,29.72,0,0,0,0.00
2013-3-16,33,28,22,16,-25,-63,64,25,1,30.15,29.76,0,0,0,0.00
2013-3-17,32,25,17,21,12,6,70,59,35,30.16,29.88,0,0,0,0.00
2013-3-18,32,25,15,12,-21,-62,65,28,1,29.88,29.62,0,0,0,0.00
2013-3-19,26,17,10,17,9,-4,75,69,43,30.14,29.82,0,0,0,0.00
2013-3-20,21,14,9,12,6,2,75,71,62,30.16,30.06,0,0,0,0.00
2013-3-21,25,17,7,16,9,1,75,71,62,30.08,29.99,0,0,0,0.00
2013-3-22,32,24,14,22,15,6,72,69,63,30.05,29.99,0,0,0,0.00
2013-3-23,35,30,22,25,19,10,70,64,56,30.10,30.00,0,0,0,0.00
2013-3-24,32,30,28,19,-14,-61,60,27,1,30.02,29.84,0,0,0,0.00
2013-3-25,35,30,24,25,17,0,67,59,28,30.15,29.88,0,0,0,0.00
2013-3-26,38,30,24,28,15,0,70,54,32,30.26,30.15,0,0,0,0.00
2013-3-27,41,33,27,29,17,-4,69,53,24,30.31,30.25,0,0,0,0.00
2013-3-28,45,37,29,34,26,17,69,64,54,30.31,30.24,0,0,0,0.00
2013-3-29,53,42,32,41,30,21,67,62,52,30.27,30.12,0,0,0,0.00
2013-3-30,47,41,32,27,-25,-58,60,17,1,30.12,29.84,0,0,0,0.00
2013-3-31,43,34,29,26,-26,-60,57,20,1,30.00,29.81,0,0,0,0.00
2013-4-1,34,28,23,22,14,4,65,54,36,30.21,30.00,0,0,0,0.00
2013-4-2,37,30,23,24,3,-64,62,41,1,30.30,30.20,0,0,0,0.00
2013-4-3,44,34,24,27,17,-15,62,51,16,30.39,30.21,0,0,0,0.00
2013-4-4,54,41,32,39,26,8,62,54,31,30.20,30.00,0,0,0,0.00
2013-4-5,47,40,31,33,19,-28,61,47,6,30.19,29.91,0,0,0,0.00
2013-4-6,59,46,37,44,4,-53,62,37,1,29.91,29.49,0,0,0,0.00
2013-4-7,56,44,35,40,-19,-57,55,16,1,29.95,29.71,0,0,0,0.00
2013-4-8,62,52,44,16,-38,-51,25,3,1,29.89,29.64,0,0,0,0.00
2013-4-9,46,40,38,-50,-53,-55,1,1,1,29.98,29.77,0,0,0,0.00
2013-4-10,38,35,32,-55,-57,-59,1,1,1,30.06,29.70,0,0,0,0.00
2013-4-11,41,37,35,-53,-55,-57,1,1,1,29.76,29.51,0,0,0,0.00
2013-4-12,36,34,31,12,-34,-59,41,10,1,29.83,29.53,0,0,0,0.00
2013-4-13,43,35,31,31,10,-60,63,42,1,29.93,29.83,0,0,0,0.00
2013-4-14,59,42,32,17,-42,-58,47,7,1,29.90,29.44,0,0,0,0.00
2013-4-15,47,41,34,33,5,-56,63,38,1,30.01,29.60,0,0,0,0.00
2013-4-16,49,39,30,36,16,-60,65,47,1,30.23,29.99,0,0,0,0.00
2013-4-17,42,40,37,30,-21,-56,63,23,1,30.22,29.60,0,0,0,0.00
2013-4-18,41,38,32,-53,-55,-59,1,1,1,29.72,29.39,0,0,0,0.00
2013-4-19,36,33,31,19,-26,-59,50,17,1,29.96,29.48,0,0,0,0.00
2013-4-20,44,36,27,28,0,-62,65,39,1,30.28,29.96,0,0,0,0.00
2013-4-21,57,45,34,42,16,-57,63,42,1,30.29,30.07,0,0,0,0.00
2013-4-22,59,51,42,41,-24,-53,54,11,1,30.17,29.90,0,0,0,0.00
2013-4-23,42,36,33,28,-13,-58,63,27,1,30.06,29.95,0,0,0,0.00
2013-4-24,51,39,28,36,8,-61,63,36,1,30.07,29.93,0,0,0,0.00
2013-4-25,54,41,30,34,17,-56,65,46,1,30.22,30.01,0,0,0,0.00
2013-4-26,69,55,41,49,38,7,64,52,18,30.18,30.08,0,0,0,0.00
2013-4-27,66,54,42,49,5,-52,59,32,1,30.19,29.98,0,0,0,0.00
2013-4-28,73,59,42,50,22,-52,57,37,1,29.98,29.75,0,0,0,0.00
2013-4-29,72,61,52,54,-2,-46,52,18,1,29.81,29.59,0,0,0,0.00
2013-4-30,81,69,56,59,19,-41,57,31,1,29.92,29.56,0,0,0,0.00
2013-5-1,56,50,39,37,4,-48,50,24,1,30.29,29.88,0,0,0,0.00
2013-5-2,39,33,32,-6,-52,-59,15,2,1,30.35,30.22,0,0,0,0.00
2013-5-3,35,33,31,-57,-58,-60,1,1,1,30.27,29.95,0,0,0,0.00
2013-5-4,64,47,35,-39,-49,-57,1,1,1,30.03,29.93,0,0,0,0.00
2013-5-5,69,55,42,50,-21,-53,52,13,1,30.07,29.99,0,0,0,0.00
2013-5-6,73,60,48,53,4,-49,54,24,1,30.07,29.99,0,0,0,0.00
2013-5-7,77,66,51,52,34,-34,56,33,2,30.05,29.96,0,0,0,0.00
2013-5-8,78,65,55,54,30,-42,57,40,1,30.01,29.93,0,0,0,0.00
2013-5-9,62,58,55,-40,-43,-44,1,1,1,29.94,29.81,0,0,0,0.00
2013-5-10,55,55,55,-44,-44,-44,1,1,1,30.00,29.89,0,0,0,0.00
2013-5-11,55,55,55,-44,-44,-44,1,1,1,30.11,29.87,0,0,0,0.00
2013-5-12,67,54,45,45,-8,-44,48,20,1,30.24,30.09,18,4,21,0.00
2013-5-13,69,55,37,47,35,24,70,49,31,30.14,29.79,21,8,21,0.00
2013-5-14,96,74,52,60,52,44,75,50,25,29.79,29.50,30,11,30,0.00
2013-5-15,77,67,55,49,46,42,72,47,31,29.91,29.65,27,6,30,0.00
2013-5-16,83,70,55,53,47,42,71,46,29,29.94,29.83,17,4,27,0.01
2013-5-17,78,66,53,62,55,43,74,67,51,29.99,29.86,19,9,20,0.31
2013-5-18,82,70,57,64,58,48,74,66,50,30.00,29.82,22,10,22,0.00
2013-5-19,82,71,63,69,60,49,72,67,60,29.86,29.56,36,16,36,0.56
2013-5-20,75,70,60,63,58,48,75,68,61,29.69,29.57,23,10,23,0.23
2013-5-21,66,62,59,57,52,46,75,69,61,29.67,29.54,18,8,18,0.07
2013-5-22,66,60,55,57,50,42,75,70,61,29.81,29.63,25,6,25,0.81
2013-5-23,62,56,50,52,45,40,77,66,47,30.27,29.81,30,12,30,0.33
2013-5-24,65,55,44,49,43,37,77,64,40,30.38,30.21,20,8,20,0.22
2013-5-25,54,52,49,46,44,41,77,74,69,30.29,30.21,29,12,30,0.20
2013-5-26,54,50,46,44,41,34,78,70,63,30.22,30.01,41,9,41,0.82
2013-5-27,60,56,53,48,44,41,65,63,62,30.03,29.78,20,8,41,0.07
2013-5-28,73,63,54,65,52,42,75,66,59,29.79,29.66,15,4,21,0.05
2013-5-29,77,66,60,68,54,47,76,66,59,29.83,29.72,21,9,21,2.08
2013-5-30,75,68,62,66,59,50,76,71,61,29.76,29.55,30,15,30,0.01
2013-5-31,75,67,61,65,56,48,76,68,61,29.70,29.61,26,12,30,0.00
2013-6-1,68,64,58,58,54,46,78,71,61,29.83,29.59,19,7,26,0.00
2013-6-2,62,54,47,50,44,41,79,70,54,30.04,29.83,29,6,30,0.00
2013-6-3,68,59,49,50,45,41,76,61,41,30.08,29.97,13,3,30,0.00
2013-6-4,59,57,52,52,49,43,78,75,69,30.13,30.01,22,8,23,0.24
2013-6-5,62,58,54,50,46,41,78,65,60,30.04,29.91,14,4,23,0.27
2013-6-6,66,59,56,58,49,43,78,70,61,29.96,29.88,19,5,19,0.00
2013-6-7,65,58,54,57,49,42,78,71,63,29.99,29.91,12,3,19,0.00
2013-6-8,70,62,53,58,53,45,78,71,58,29.93,29.86,14,4,14,0.00
2013-6-9,69,65,61,61,56,50,77,74,67,29.87,29.73,24,12,24,0.00
2013-6-10,75,66,60,63,55,47,77,67,61,29.87,29.76,11,2,24,0.00
2013-6-11,85,73,60,67,60,48,76,65,47,29.89,29.78,15,4,15,0.00
2013-6-12,81,74,68,72,63,53,76,71,59,29.92,29.63,24,6,24,0.35
2013-6-13,76,73,64,61,58,55,77,60,49,30.03,30.00,20,5,21,0.35
2013-6-14,76,68,60,62,58,52,77,70,57,30.10,29.89,24,8,24,0.00
2013-6-15,76,70,64,68,60,50,77,71,61,29.99,29.83,16,5,24,0.14
2013-6-16,83,74,63,65,54,48,77,52,30,29.94,29.88,13,4,16,0.01
2013-6-17,86,75,63,60,55,52,74,53,33,29.95,29.87,19,5,20,0.00
2013-6-18,75,68,61,59,56,53,77,67,52,30.07,29.93,15,4,20,0.00
2013-6-19,81,70,59,61,57,51,77,64,47,30.10,29.99,17,8,17,0.00
2013-6-20,86,77,64,66,62,56,76,62,47,30.07,29.94,26,11,26,0.00
2013-6-21,82,74,63,72,64,50,77,72,61,30.03,29.86,37,11,37,1.50
2013-6-22,86,76,66,76,67,56,78,72,60,29.98,29.80,23,9,25,0.00
2013-6-23,80,72,67,69,64,59,79,75,66,29.95,29.81,23,7,23,0.02
2013-6-24,73,69,67,65,58,53,77,69,60,30.02,29.82,24,6,24,0.59
2013-6-25,81,73,66,73,64,52,77,71,60,29.86,29.73,22,5,24,0.17
2013-6-26,82,73,67,74,64,54,78,73,62,29.81,29.67,16,4,22,0.15
2013-6-27,85,76,65,71,61,54,78,63,35,29.85,29.79,27,6,28,0.00
2013-6-28,78,71,62,63,59,55,79,68,51,29.82,29.71,24,8,28,0.11
2013-6-29,68,64,62,61,56,50,80,73,62,29.89,29.70,31,9,31,0.36
2013-6-30,74,66,57,59,54,50,81,67,47,30.07,29.89,24,10,31,0.00
2013-7-1,78,69,58,59,55,52,79,62,42,30.14,30.07,17,5,24,0.00
2013-7-2,80,70,60,61,57,53,79,65,43,30.11,30.02,14,3,17,0.00
2013-7-3,77,68,58,60,55,51,79,64,44,30.08,29.99,10,3,14,0.00
2013-7-4,82,71,59,63,58,52,79,64,46,30.04,29.95,18,5,18,0.00
2013-7-5,84,74,63,65,61,55,79,64,46,30.02,29.92,21,7,21,0.00
2013-7-6,86,76,66,69,65,58,78,68,53,29.98,29.87,19,8,19,0.00
2013-7-7,88,78,68,73,67,58,78,69,55,29.92,29.85,15,7,18,0.00
2013-7-8,88,80,72,75,68,58,78,68,59,29.96,29.87,10,2,15,0.26
2013-7-9,86,78,73,77,68,58,78,70,60,29.96,29.85,14,5,14,0.16
2013-7-10,78,72,67,67,59,55,80,66,46,30.04,29.89,20,4,20,0.00
2013-7-11,80,71,59,63,59,53,80,67,47,30.11,30.03,12,3,20,0.00
2013-7-12,81,71,61,65,59,54,80,67,46,30.10,30.01,22,9,22,0.00
2013-7-13,73,67,63,64,60,56,80,77,68,30.14,30.02,16,6,22,0.10
2013-7-14,83,73,62,70,63,55,80,71,53,30.19,30.09,17,6,17,0.01
2013-7-15,86,77,68,74,68,57,79,73,63,30.24,30.16,13,4,17,0.00
2013-7-16,88,80,72,75,69,58,78,70,61,30.24,30.19,9,4,13,0.00
2013-7-17,90,82,72,76,70,60,79,68,54,30.28,30.15,7,2,9,0.01
2013-7-18,91,82,72,75,70,61,79,68,54,30.16,29.89,15,5,15,0.00
2013-7-19,89,79,68,75,67,59,79,68,47,29.90,29.81,16,5,16,0.00
2013-7-20,84,74,63,67,63,56,80,69,53,29.94,29.86,9,2,9,0.00
2013-7-21,82,72,65,71,63,56,81,74,52,29.92,29.82,17,4,17,0.01
2013-7-22,87,72,63,75,62,51,80,70,57,29.87,29.67,22,6,22,0.01
2013-7-23,75,67,60,60,56,53,81,70,50,29.99,29.78,22,5,22,0.00
2013-7-24,74,65,55,59,55,49,81,70,54,30.06,29.98,6,2,6,0.01
2013-7-25,83,68,56,67,58,48,81,71,54,30.03,29.91,29,6,29,0.43
2013-7-26,71,66,57,64,55,51,83,68,63,29.99,29.91,18,5,29,0.04
2013-7-27,63,55,49,52,48,44,84,77,58,30.01,29.92,16,3,18,0.00
2013-7-28,68,58,48,54,50,43,84,74,54,30.04,29.90,17,2,17,0.00
2013-7-29,74,63,51,59,54,47,84,72,54,30.12,30.03,11,3,17,0.00
2013-7-30,70,66,60,64,60,54,83,81,75,30.09,30.04,14,4,14,0.00
2013-7-31,78,69,61,67,60,52,83,73,63,30.06,29.98,9,2,14,0.00
2013-8-1,79,68,57,67,59,52,84,74,49,30.04,29.86,9,2,9,0.00
2013-8-2,77,69,62,64,59,55,84,70,52,30.00,29.84,16,3,16,0.01
2013-8-3,76,67,55,60,54,50,84,66,45,30.15,30.00,16,4,16,0.00
2013-8-4,76,66,56,58,54,50,83,67,47,30.19,30.05,10,2,16,0.00
2013-8-5,74,66,60,69,59,50,83,79,66,30.05,29.82,19,5,19,1.37
2013-8-6,82,72,62,72,61,50,80,69,52,29.87,29.76,8,2,12,0.01
2013-8-7,74,68,62,64,59,49,78,73,57,29.99,29.77,18,4,18,0.00
2013-8-8,76,67,55,64,56,44,77,70,62,30.03,29.96,11,2,19,0.00
2013-8-9,75,68,59,63,54,38,72,62,43,30.10,29.96,15,2,15,0.00
2013-8-10,74,65,53,62,52,32,70,62,38,30.17,30.07,9,1,15,0.00
2013-8-11,73,67,63,60,25,-40,63,32,1,30.10,29.98,15,3,15,0.09
2013-8-12,76,68,61,61,10,-41,63,28,1,30.01,29.95,14,2,14,0.01
2013-8-13,70,63,56,54,17,-44,64,36,1,30.15,30.01,17,4,17,0.00
2013-8-14,74,62,51,55,33,-46,62,43,1,30.19,30.10,8,1,17,0.00
2013-8-15,75,64,54,56,26,-45,61,35,1,30.14,30.07,8,1,8,0.00
2013-8-16,77,67,56,60,24,-44,60,35,1,30.18,30.11,8,1,8,0.00
2013-8-17,79,68,58,60,36,-43,60,38,1,30.20,30.11,9,2,9,0.00
2013-8-18,78,68,58,62,21,-43,59,30,1,30.17,30.05,14,4,14,0.00
2013-8-19,80,68,57,64,2,-43,59,22,1,30.06,29.97,14,4,14,0.00
2013-8-20,84,74,64,67,16,-39,57,24,1,30.00,29.92,20,8,21,0.00
2013-8-21,86,77,68,68,8,-36,57,20,1,29.99,29.92,13,4,17,0.00
2013-8-22,77,72,66,30,-29,-38,18,2,1,30.08,29.95,26,2,26,0.40
2013-8-23,80,71,62,55,-16,-40,45,8,1,30.14,30.06,16,4,16,0.00
2013-8-24,84,74,64,36,-26,-39,19,2,1,30.15,30.06,18,9,18,0.00
2013-8-25,88,79,69,64,3,-36,46,13,1,30.14,30.03,14,6,14,0.40
2013-8-26,90,79,68,56,-12,-37,31,6,1,30.07,29.92,10,4,14,0.00
2013-8-27,90,81,71,59,-5,-34,38,10,1,29.94,29.82,15,4,15,0.00
2013-8-28,83,78,73,-27,-30,-33,1,1,1,30.00,29.87,7,2,15,0.00
2013-8-29,90,79,70,42,-23,-35,19,2,1,30.02,29.91,12,4,12,0.00
2013-8-30,89,80,73,-24,-29,-34,1,1,1,29.91,29.79,15,3,15,0.00
2013-8-31,82,73,68,-28,-33,-37,1,1,1,29.86,29.77,7,2,15,0.00
2013-9-1,79,70,60,44,-20,-41,30,5,1,29.91,29.74,13,3,13,0.00
2013-9-2,68,60,52,-37,-41,-46,1,1,1,30.02,29.90,19,3,19,0.00
2013-9-3,74,61,48,46,-24,-49,38,7,1,30.08,30.00,9,2,19,0.00
2013-9-4,84,70,54,32,-30,-45,16,2,1,30.10,30.02,10,2,10,0.00
2013-9-5,80,70,65,-30,-35,-38,1,1,1,30.19,30.09,10,2,10,0.00
2013-9-6,86,73,60,60,-12,-41,44,10,1,30.13,29.91,14,5,14,0.00
2013-9-7,87,75,65,-25,-32,-38,1,1,1,29.93,29.84,18,2,18,0.01
2013-9-8,74,70,67,-33,-35,-37,1,1,1,30.00,29.88,18,4,19,0.00
2013-9-9,93,78,66,67,-6,-38,43,11,1,29.88,29.74,15,5,18,0.00
2013-9-10,91,78,67,67,0,-37,46,14,1,29.99,29.81,15,4,15,0.00
2013-9-11,82,70,63,-28,-35,-40,1,1,1,30.05,29.97,12,2,15,0.54
2013-9-12,72,64,55,50,-8,-44,48,17,1,30.15,30.01,24,4,24,0.00
2013-9-13,65,56,45,44,-14,-51,47,15,1,30.23,30.09,14,2,23,0.00
2013-9-14,72,60,46,49,0,-50,50,23,1,30.11,29.87,14,5,14,0.01
2013-9-15,64,58,54,-39,-43,-45,1,1,1,30.20,29.85,22,7,23,0.37
2013-9-16,66,56,47,24,-40,-49,21,2,1,30.34,30.20,10,2,23,0.01
2013-9-17,62,54,47,-40,-45,-49,1,1,1,30.25,29.98,15,6,15,0.07
2013-9-18,80,68,61,-30,-36,-41,1,1,1,29.98,29.75,20,9,20,0.01
2013-9-19,82,73,65,-28,-34,-38,1,1,1,29.80,29.68,19,5,20,0.30
2013-9-20,65,58,50,-38,-43,-48,1,1,1,29.90,29.78,16,4,19,0.00
2013-9-21,65,54,43,-38,-45,-52,1,1,1,29.95,29.88,8,2,10,0.00
2013-9-22,71,58,46,34,-34,-50,26,3,1,29.98,29.89,14,5,14,0.00
2013-9-23,71,58,47,48,-25,-49,44,9,1,30.00,29.89,21,8,21,0.00
2013-9-24,72,60,49,41,-26,-48,33,6,1,29.94,29.87,14,4,21,0.00
2013-9-25,72,60,47,39,-30,-49,31,5,1,29.95,29.87,8,3,15,0.00
2013-9-26,80,66,52,53,-20,-46,39,8,1,29.96,29.89,24,8,24,0.00
2013-9-27,81,69,57,57,-5,-43,46,13,1,30.00,29.89,27,11,27,0.00
2013-9-28,69,60,49,-36,-41,-48,1,1,1,29.97,29.76,26,9,27,0.43
2013-9-29,70,56,42,48,-21,-52,45,12,1,30.02,29.90,14,4,26,0.00
2013-9-30,72,60,48,51,-16,-49,48,14,1,29.91,29.71,22,8,22,0.00
2013-10-1,79,65,57,53,-2,-43,46,17,1,29.96,29.75,14,3,23,0.00
2013-10-2,77,65,51,53,18,-47,46,26,1,30.04,29.85,17,5,17,0.00
2013-10-3,75,66,59,-32,-38,-42,1,1,1,29.86,29.75,17,3,17,0.51
2013-10-4,69,64,59,-36,-39,-42,1,1,1,29.89,29.75,15,3,17,0.26
2013-10-5,70,59,44,6,-40,-51,12,1,1,29.85,29.73,20,4,21,0.12
2013-10-6,48,45,42,-49,-50,-53,1,1,1,29.78,29.67,11,2,12,0.26
2013-10-7,67,54,41,45,-24,-53,45,11,1,30.01,29.78,14,3,14,0.00
2013-10-8,75,60,45,48,-5,-51,48,18,1,30.04,29.95,21,8,21,0.00
2013-10-9,73,60,48,50,-10,-49,47,16,1,30.10,30.01,18,7,21,0.00
2013-10-10,73,60,47,52,-14,-49,49,15,1,30.06,29.91,18,7,18,0.00
2013-10-11,75,64,52,47,-13,-46,38,10,1,29.93,29.75,32,13,32,0.00
2013-10-12,67,57,45,41,-1,-49,50,23,1,30.17,29.76,25,8,32,0.00
2013-10-13,61,49,36,37,6,-56,51,29,1,30.38,30.17,9,2,10,0.00
2013-10-14,62,52,40,41,11,-54,51,31,1,30.34,29.92,22,9,22,0.07
2013-10-15,55,50,46,-44,-48,-50,1,1,1,29.92,29.73,23,13,23,0.22
2013-10-16,47,45,42,-49,-50,-52,1,1,1,29.92,29.76,18,4,23,0.02
2013-10-17,57,47,40,35,-30,-54,45,11,1,29.89,29.76,14,4,14,0.00
2013-10-18,50,44,36,28,-29,-56,45,11,1,29.94,29.81,17,6,17,0.00
2013-10-19,49,39,33,-48,-54,-58,1,1,1,29.87,29.70,19,5,19,0.11
2013-10-20,56,41,28,-44,-53,-61,1,1,1,29.82,29.63,22,6,22,0.01
2013-10-21,42,36,28,19,-28,-61,41,13,1,29.94,29.82,20,6,22,0.00
2013-10-22,44,34,26,15,-52,-62,32,3,1,29.97,29.88,12,2,21,0.00
2013-10-23,40,35,28,-2,-44,-62,21,4,1,30.03,29.95,17,4,17,0.00
2013-10-24,41,35,29,20,-32,-61,44,14,1,30.28,30.03,17,4,17,0.00
2013-10-25,52,40,26,32,-15,-62,49,23,1,30.29,29.88,24,9,24,0.00
2013-10-26,49,42,34,30,-3,-57,52,27,1,30.05,29.81,21,8,21,0.00
2013-10-27,57,41,24,35,-15,-63,49,21,1,30.04,29.81,20,6,21,0.00
2013-10-28,45,40,36,17,-37,-56,33,7,1,30.28,29.96,16,5,16,0.00
2013-10-29,56,46,37,38,-17,-56,51,18,1,30.28,30.01,16,7,16,0.00
2013-10-30,60,52,48,-41,-46,-49,1,1,1,30.01,29.62,29,10,29,0.49
2013-10-31,56,46,38,-44,-50,-55,1,1,1,29.62,29.38,14,6,16,0.34
2013-11-1,51,42,36,-47,-52,-56,1,1,1,29.76,29.40,20,6,21,0.00
2013-11-2,48,39,32,24,-44,-59,39,5,1,30.08,29.76,18,4,18,0.00
2013-11-3,52,42,32,30,-19,-59,45,15,1,30.17,30.01,32,14,32,0.34
2013-11-4,47,44,37,3,-46,-56,18,2,1,30.17,29.97,22,11,24,0.02
2013-11-5,52,42,33,-46,-53,-58,1,1,1,30.22,29.79,18,5,18,1.30
2013-11-6,42,36,27,11,-52,-62,28,2,1,30.22,29.79,25,9,25,0.07
2013-11-7,43,32,26,-52,-58,-62,1,1,1,30.25,30.17,20,8,25,0.00
2013-11-8,47,36,23,27,-37,-64,48,10,1,30.25,29.75,33,12,33,0.00
2013-11-9,50,43,34,22,-42,-57,33,4,1,30.22,29.76,31,12,33,0.00
2013-11-10,46,38,31,29,-29,-59,52,15,1,30.37,30.11,20,7,31,0.00
2013-11-11,42,29,15,0,-35,-64,35,11,1,30.63,30.08,33,7,33,0.00
2013-11-12,24,17,8,13,-8,-72,64,42,1,30.77,30.53,12,5,33,0.00
2013-11-13,44,30,15,27,13,-14,62,50,24,30.53,30.02,22,10,22,0.02
2013-11-14,48,38,29,31,21,6,58,50,35,30.02,29.86,17,7,22,0.00
2013-11-15,53,40,27,33,-10,-62,46,20,1,29.93,29.78,15,6,15,0.00
2013-11-16,57,48,38,-43,-49,-55,1,1,1,29.79,29.32,25,13,25,0.31
2013-11-17,49,42,35,-48,-52,-57,1,1,1,29.86,29.31,34,10,34,0.18
2013-11-18,38,33,26,20,-32,-63,48,13,1,30.27,29.86,31,12,34,0.00
2013-11-19,43,33,23,26,-20,-64,53,19,1,30.28,30.07,25,12,25,0.00
2013-11-20,37,36,34,18,-30,-57,45,14,1,30.07,29.96,25,16,25,0.00
2013-11-21,38,34,28,-55,-58,-62,1,1,1,30.36,30.04,22,5,25,0.00
2013-11-22,28,23,14,17,-14,-65,62,37,1,30.54,30.36,20,7,22,0.01
2013-11-23,21,13,4,7,3,-8,71,65,29,30.73,30.48,17,8,17,0.00
2013-11-24,24,14,3,12,4,-12,69,63,46,30.69,30.20,19,9,20,0.00
2013-11-25,34,28,20,16,-18,-65,66,27,1,30.20,30.02,25,11,25,0.02
2013-11-26,32,22,10,20,11,2,71,61,38,30.28,30.06,28,12,28,0.00
2013-11-27,23,15,7,12,6,-2,71,68,61,30.33,30.09,15,6,15,0.00
2013-11-28,30,20,12,20,10,1,69,65,53,30.48,30.06,17,6,17,0.00
2013-11-29,30,23,14,20,11,0,67,61,53,30.51,30.24,20,9,21,0.00
2013-11-30,42,32,25,29,10,-63,62,42,1,30.24,30.04,17,7,17,0.00
2013-12-1,40,33,26,27,-21,-63,61,21,1,30.17,29.95,14,3,17,0.00
2013-12-2,39,34,29,-54,-57,-61,1,1,1,29.95,29.64,24,12,24,0.00
2013-12-3,37,35,34,-56,-56,-57,1,1,1,29.71,29.61,19,7,24,0.00
2013-12-4,44,34,22,-51,-57,-65,1,1,1,29.79,29.43,34,12,34,0.05
2013-12-5,22,14,6,5,-22,-72,60,36,1,30.33,29.79,29,16,35,0.00
2013-12-6,13,6,0,3,-6,-13,65,59,51,30.59,30.31,18,9,29,0.00
2013-12-7,10,4,-3,0,-6,-15,68,64,52,30.69,30.52,14,5,18,0.00
2013-12-8,18,14,9,2,-39,-70,66,27,1,30.54,29.98,16,6,16,0.00
2013-12-9,14,2,-7,-4,-21,-73,72,50,1,30.19,29.98,21,9,21,0.00
2013-12-10,16,10,-4,3,-18,-71,68,44,1,30.22,29.87,30,13,30,0.00
2013-12-11,16,2,-7,-1,-19,-69,72,57,1,30.52,30.22,25,8,30,0.00
2013-12-12,20,9,-4,7,-14,-72,68,47,1,30.44,30.13,19,6,25,0.00
2013-12-13,26,18,10,8,-31,-72,49,22,1,30.13,30.03,20,6,21,0.00
2013-12-14,21,17,10,-1,-35,-68,60,20,1,30.13,30.04,20,8,21,0.00
2013-12-15,10,7,2,1,-3,-13,69,64,39,30.10,30.05,17,6,20,0.00
2013-12-16,19,14,8,-8,-33,-69,47,22,1,30.08,29.95,14,7,16,0.00
2013-12-17,31,23,13,6,-36,-71,39,13,1,30.14,29.95,27,12,28,0.00
2013-12-18,39,27,11,15,-45,-72,54,10,1,30.13,29.74,24,9,28,0.02
2013-12-19,33,28,26,-5,-52,-62,22,3,1,29.93,29.77,19,6,24,0.00
2013-12-20,26,23,22,-62,-65,-65,1,1,1,29.90,29.82,16,5,16,0.00
2013-12-21,25,24,22,-63,-64,-65,1,1,1,29.89,29.77,16,6,16,0.00
2013-12-22,25,18,2,-7,-46,-67,60,13,1,30.21,29.77,25,11,25,0.00
2013-12-23,1,-4,-11,-8,-11,-17,73,70,61,30.46,30.21,19,9,20,0.00
2013-12-24,10,-3,-15,-3,-14,-45,75,63,7,30.47,30.18,21,9,21,0.00
2013-12-25,25,17,10,11,-47,-72,63,16,1,30.18,30.08,19,8,20,0.00
2013-12-26,28,23,12,12,-36,-70,51,14,1,30.18,30.08,10,4,10,0.00
2013-12-27,37,24,9,8,-46,-72,32,6,1,30.20,30.03,16,5,16,0.00
2013-12-28,40,32,24,21,-28,-64,46,15,1,30.06,29.76,25,10,25,0.00
2013-12-29,29,8,-10,0,-17,-65,75,51,1,30.26,29.85,26,13,26,0.00
2013-12-30,3,-5,-14,-6,-12,-20,76,70,59,30.26,30.14,9,4,26,0.00
2013-12-31,5,1,-8,-5,-10,-15,73,60,50,30.29,30.16,6,2,9,0.00
2014-1-1,6,3,0,-1,-4,-8,73,71,66,30.32,30.24,21,6,21,0.00
2014-1-2,5,0,-9,-2,-6,-16,76,73,70,30.42,30.28,22,7,23,0.00